Miscellaneous Local Product
Issued by NWS North Platte, NE

Home | Current Version | Previous Version | Graphics & Text | Print | Product List | Glossary On
Versions: 1 2 3 4 5 6 7 8 9 10 11 12 13 14 15 16 17 18 19 20 21 22 23 24 25 26 27 28 29 30 31 32 33 34 35 36 37 38 39 40 41 42 43 44 45 46 47 48 49 50
000
AXUS43 KLBF 070210
MISLBF


WESTERN AND NORTH CENTRAL NEBRASKA HOURLY WEATHER ROUNDUP
NATIONAL WEATHER SERVICE NORTH PLATTE NE
800 PM CST SAT FEB 06 2016

NOTE: "FAIR" INDICATES FEW OR NO CLOUDS BELOW 12,000 FEET WITH NO
SIGNIFICANT WEATHER AND/OR OBSTRUCTIONS TO VISIBILITY.

NOTE: STATIONS NOT REPORTING VARIABLES SUCH AS SKY/WEATHER OR
PRESSURE ARE PROVIDED BY THE NEBRASKA DEPARTMENT OF
ROADS...RAWS...AND APRS NETWORKS...AND ARE NOT UNDER
NATIONAL WEATHER SERVICE QUALITY CONTROL.

...OBSERVATIONS IN AND NEAR THE EASTERN PANHANDLE OF NEBRASKA...

CITY           SKY/WX    TMP DP  RH WIND       PRES   REMARKS
PINE RIDGE     CLOUDY    39  26  59 N10       30.00R WCI  32
CHADRON        CLOUDY    38  27  64 W13       30.02R WCI  30
ALLIANCE       CLOUDY    38  26  62 NW20      30.01R WCI  28
SIDNEY         CLOUDY    38  28  67 W15       30.00F WCI  29
$$

...OBSERVATIONS IN NORTH CENTRAL NEBRASKA...

CITY           SKY/WX    TMP DP  RH WIND       PRES   REMARKS
VALENTINE      CLOUDY    37  29  72 W13       29.91R WCI  29
THEDFORD       CLOUDY    38  30  73 W8        29.93R WCI  32
AINSWORTH      CLOUDY    36  29  75 W9        29.90R WCI  29
O`NEILL        CLEAR     38  30  71 SW10      29.88S WCI  31
ORD            CLOUDY    36  27  69 SW10      29.92S WCI  28
BROKEN BOW     CLOUDY    34  27  75 W12       29.94S WCI  25
BUTTE            N/A     38  30  73 W8          N/A  WCI  32
CHAMBERS         N/A     36  28  73 W5          N/A  WCI  32
EWING            N/A     35  29  80 SW6         N/A  WCI  30
$$

...OBSERVATIONS IN SOUTHWEST NEBRASKA AND FAR NORTHEAST COLORADO...

CITY           SKY/WX    TMP DP  RH WIND       PRES   REMARKS
WRAY           FAIR      35  27  74 SW9       30.03S WCI  27
HOLYOKE        FAIR      32  27  80 W10       30.01F WCI  24
IMPERIAL       CLOUDY    33  25  72 W13       30.01S WCI  24
OGALLALA       CLOUDY    31  22  72 SW9       30.01R WCI  22
NORTH PLATTE   CLOUDY    33  24  69 W9        29.98S WCI  25
MCCOOK         CLOUDY    37  25  61 SW13      30.01F WCI  29
LEXINGTON      CLOUDY    36  25  65 W10       29.98F WCI  28
PAXTON           N/A     31  27  83 W6          N/A  WCI  25
STAPLETON        N/A     33  28  81 CALM        N/A
GOTHENBURG       N/A     38  25  59 W3          N/A
CALLAWAY         N/A     35  27  74 W17         N/A  WCI  25
$$

...OBSERVATIONS IN CENTRAL LINCOLN COUNTY AREA...

CITY           SKY/WX    TMP DP  RH WIND       PRES   REMARKS
N.P. AIRPORT   CLOUDY    33  24  69 W9        29.98S WCI  25
N.P. DOWNTOWN    N/A     34  27  75 CALM        N/A
N.P. SOUTHEAST   N/A     34  26  74 W3          N/A
N.P. HILLCREST   N/A     33  27  79 W3          N/A
$$

...SOME OBSERVATIONS FROM AROUND THE REGION...

CITY           SKY/WX    TMP DP  RH WIND       PRES   REMARKS
DENVER         CLOUDY    41  20  43 W13       30.11R
LARAMIE        CLOUDY    32  15  49 W28G40    30.15R WCI  18
CHEYENNE       CLOUDY    38  16  40 W9        30.09R WCI  31
SCOTTSBLUFF    CLOUDY    41  23  48 W22G32    30.01R
RAPID CITY     CLOUDY    40  24  53 NW25G39   29.97R WCI  29
BISMARCK       PTCLDY    47  22  37 W20G29    29.71R
PIERRE         PTCLDY    43  28  55 W12       29.85F
WINNER         CLOUDY    42  29  59 NW23      29.90R
SIOUX FALLS    CLOUDY    33  26  75 SW9       29.83F WCI  25
OMAHA          CLOUDY    40  27  59 S9        29.99F WCI  34
GRAND ISLAND   CLOUDY    35  26  69 SW16      29.96F WCI  25
KANSAS CITY    CLOUDY    40  29  64 SW12      30.12F WCI  33
WICHITA        CLOUDY    37  27  67 S13       30.17F WCI  29
OKLAHOMA CITY  CLOUDY    38  27  64 S7        30.26F WCI  33
LIBERAL        CLOUDY    39  16  38 S13       30.15F WCI  32
HAYS           CLOUDY    37  21  52 SW15      30.07F WCI  28
GOODLAND       CLOUDY    37  22  54 W17       30.06F WCI  27
$$




USA.gov is the U.S. government's official web portal to all federal, state and local government web resources and services.